Year,Month,Day,Hour,Minute,Value (Times are PST for temperature in C)
2014,09,20,00,00,13.00
2014,09,20,00,01,12.90
2014,09,20,00,02,12.90
2014,09,20,00,03,12.80
2014,09,20,00,04,12.80
2014,09,20,00,05,12.80
2014,09,20,00,06,12.80
2014,09,20,00,07,12.70
2014,09,20,00,08,12.70
2014,09,20,00,09,12.70
2014,09,20,00,10,12.70
2014,09,20,00,11,12.70
2014,09,20,00,12,12.70
2014,09,20,00,13,12.70
2014,09,20,00,14,12.70
2014,09,20,00,15,12.70
2014,09,20,00,16,12.60
2014,09,20,00,17,12.60
2014,09,20,00,18,12.50
2014,09,20,00,19,12.50
2014,09,20,00,20,12.50
2014,09,20,00,21,12.50
2014,09,20,00,22,12.60
2014,09,20,00,23,12.60
2014,09,20,00,24,12.70
2014,09,20,00,25,12.70
2014,09,20,00,26,12.70
2014,09,20,00,27,12.70
2014,09,20,00,28,12.70
2014,09,20,00,29,12.60
2014,09,20,00,30,12.60
2014,09,20,00,31,12.60
2014,09,20,00,32,12.60
2014,09,20,00,33,12.60
2014,09,20,00,34,12.60
2014,09,20,00,35,12.60
2014,09,20,00,36,12.50
2014,09,20,00,37,12.50
2014,09,20,00,38,12.60
2014,09,20,00,39,12.60
2014,09,20,00,40,12.60
2014,09,20,00,41,12.60
2014,09,20,00,42,12.60
2014,09,20,00,43,12.60
2014,09,20,00,44,12.60
2014,09,20,00,45,12.60
2014,09,20,00,46,12.70
2014,09,20,00,47,12.70
2014,09,20,00,48,12.70
2014,09,20,00,49,12.70
2014,09,20,00,50,12.70
2014,09,20,00,51,12.70
2014,09,20,00,52,12.70
2014,09,20,00,53,12.70
2014,09,20,00,54,12.70
2014,09,20,00,55,12.70
2014,09,20,00,56,12.70
2014,09,20,00,57,12.70
2014,09,20,00,58,12.70
2014,09,20,00,59,12.70
2014,09,20,01,00,12.70
2014,09,20,01,01,12.70
2014,09,20,01,02,12.70
2014,09,20,01,03,12.70
2014,09,20,01,04,12.60
2014,09,20,01,05,12.60
2014,09,20,01,06,12.60
2014,09,20,01,07,12.60
2014,09,20,01,08,12.60
2014,09,20,01,09,12.60
2014,09,20,01,10,12.60
2014,09,20,01,11,12.60
2014,09,20,01,12,12.60
2014,09,20,01,13,12.60
2014,09,20,01,14,12.50
2014,09,20,01,15,12.50
2014,09,20,01,16,12.50
2014,09,20,01,17,12.50
2014,09,20,01,18,12.40
2014,09,20,01,19,12.40
2014,09,20,01,20,12.40
2014,09,20,01,21,12.40
2014,09,20,01,22,12.40
2014,09,20,01,23,12.40
2014,09,20,01,24,12.40
2014,09,20,01,25,12.40
2014,09,20,01,26,12.40
2014,09,20,01,27,12.40
2014,09,20,01,28,12.40
2014,09,20,01,29,12.40
2014,09,20,01,30,12.40
2014,09,20,01,31,12.40
2014,09,20,01,32,12.30
2014,09,20,01,33,12.30
2014,09,20,01,34,12.30
2014,09,20,01,35,12.30
2014,09,20,01,36,12.30
2014,09,20,01,37,12.30
2014,09,20,01,38,12.20
2014,09,20,01,39,12.20
2014,09,20,01,40,12.20
2014,09,20,01,41,12.20
2014,09,20,01,42,12.20
2014,09,20,01,43,12.20
2014,09,20,01,44,12.20
2014,09,20,01,45,12.20
2014,09,20,01,46,12.20
2014,09,20,01,47,12.10
2014,09,20,01,48,12.20
2014,09,20,01,49,12.10
2014,09,20,01,50,12.20
2014,09,20,01,51,12.20
2014,09,20,01,52,12.20
2014,09,20,01,53,12.20
2014,09,20,01,54,12.20
2014,09,20,01,55,12.20
2014,09,20,01,56,12.10
2014,09,20,01,57,12.10
2014,09,20,01,58,12.10
2014,09,20,01,59,12.10
2014,09,20,02,00,12.00
2014,09,20,02,01,12.00
2014,09,20,02,02,12.00
2014,09,20,02,03,11.90
2014,09,20,02,04,11.90
2014,09,20,02,05,11.90
2014,09,20,02,06,11.90
2014,09,20,02,07,11.90
2014,09,20,02,08,11.90
2014,09,20,02,09,11.90
2014,09,20,02,10,11.90
2014,09,20,02,11,11.90
2014,09,20,02,12,11.90
2014,09,20,02,13,11.90
2014,09,20,02,14,11.90
2014,09,20,02,15,12.00
2014,09,20,02,16,12.00
2014,09,20,02,17,12.00
2014,09,20,02,18,12.00
2014,09,20,02,19,12.00
2014,09,20,02,20,12.00
2014,09,20,02,21,11.90
2014,09,20,02,22,11.90
2014,09,20,02,23,11.90
2014,09,20,02,24,12.00
2014,09,20,02,25,11.90
2014,09,20,02,26,11.90
2014,09,20,02,27,11.90
2014,09,20,02,28,11.90
2014,09,20,02,29,11.90
2014,09,20,02,30,11.90
2014,09,20,02,31,11.90
2014,09,20,02,32,11.90
2014,09,20,02,33,11.90
2014,09,20,02,34,11.90
2014,09,20,02,35,11.90
2014,09,20,02,36,11.90
2014,09,20,02,37,11.90
2014,09,20,02,38,11.90
2014,09,20,02,39,11.80
2014,09,20,02,40,11.80
2014,09,20,02,41,11.80
2014,09,20,02,42,11.80
2014,09,20,02,43,11.80
2014,09,20,02,44,11.80
2014,09,20,02,45,11.80
2014,09,20,02,46,11.70
2014,09,20,02,47,11.70
2014,09,20,02,48,11.70
2014,09,20,02,49,11.70
2014,09,20,02,50,11.70
2014,09,20,02,51,11.70
2014,09,20,02,52,11.70
2014,09,20,02,53,11.70
2014,09,20,02,54,11.70
2014,09,20,02,55,11.70
2014,09,20,02,56,11.70
2014,09,20,02,57,11.70
2014,09,20,02,58,11.70
2014,09,20,02,59,11.70
2014,09,20,03,00,11.60
2014,09,20,03,01,11.60
2014,09,20,03,02,11.70
2014,09,20,03,03,11.70
2014,09,20,03,04,11.70
2014,09,20,03,05,11.70
2014,09,20,03,06,11.70
2014,09,20,03,07,11.60
2014,09,20,03,08,11.60
2014,09,20,03,09,11.60
2014,09,20,03,10,11.60
2014,09,20,03,11,11.60
2014,09,20,03,12,11.60
2014,09,20,03,13,11.60
2014,09,20,03,14,11.60
2014,09,20,03,15,11.60
2014,09,20,03,16,11.60
2014,09,20,03,17,11.60
2014,09,20,03,18,11.60
2014,09,20,03,19,11.60
2014,09,20,03,20,11.60
2014,09,20,03,21,11.60
2014,09,20,03,22,11.60
2014,09,20,03,23,11.60
2014,09,20,03,24,11.50
2014,09,20,03,25,11.50
2014,09,20,03,26,11.40
2014,09,20,03,27,11.40
2014,09,20,03,28,11.40
2014,09,20,03,29,11.40
2014,09,20,03,30,11.40
2014,09,20,03,31,11.40
2014,09,20,03,32,11.30
2014,09,20,03,33,11.30
2014,09,20,03,34,11.30
2014,09,20,03,35,11.30
2014,09,20,03,36,11.40
2014,09,20,03,37,11.40
2014,09,20,03,38,11.40
2014,09,20,03,39,11.40
2014,09,20,03,40,11.40
2014,09,20,03,41,11.40
2014,09,20,03,42,11.40
2014,09,20,03,43,11.40
2014,09,20,03,44,11.40
2014,09,20,03,45,11.40
2014,09,20,03,46,11.50
2014,09,20,03,47,11.50
2014,09,20,03,48,11.50
2014,09,20,03,49,11.50
2014,09,20,03,50,11.50
2014,09,20,03,51,11.50
2014,09,20,03,52,11.50
2014,09,20,03,53,11.50
2014,09,20,03,54,11.40
2014,09,20,03,55,11.40
2014,09,20,03,56,11.40
2014,09,20,03,57,11.40
2014,09,20,03,58,11.40
2014,09,20,03,59,11.40
2014,09,20,04,00,11.40
2014,09,20,04,01,11.40
2014,09,20,04,02,11.40
2014,09,20,04,03,11.40
2014,09,20,04,04,11.40
2014,09,20,04,05,11.40
2014,09,20,04,06,11.30
2014,09,20,04,07,11.30
2014,09,20,04,08,11.30
2014,09,20,04,09,11.30
2014,09,20,04,10,11.30
2014,09,20,04,11,11.30
2014,09,20,04,12,11.30
2014,09,20,04,13,11.30
2014,09,20,04,14,11.30
2014,09,20,04,15,11.30
2014,09,20,04,16,11.30
2014,09,20,04,17,11.30
2014,09,20,04,18,11.30
2014,09,20,04,19,11.30
2014,09,20,04,20,11.30
2014,09,20,04,21,11.30
2014,09,20,04,22,11.30
2014,09,20,04,23,11.20
2014,09,20,04,24,11.20
2014,09,20,04,25,11.20
2014,09,20,04,26,11.20
2014,09,20,04,27,11.20
2014,09,20,04,28,11.20
2014,09,20,04,29,11.20
2014,09,20,04,30,11.20
2014,09,20,04,31,11.20
2014,09,20,04,32,11.20
2014,09,20,04,33,11.20
2014,09,20,04,34,11.20
2014,09,20,04,35,11.20
2014,09,20,04,36,11.20
2014,09,20,04,37,11.20
2014,09,20,04,38,11.20
2014,09,20,04,39,11.20
2014,09,20,04,40,11.20
2014,09,20,04,41,11.20
2014,09,20,04,42,11.20
2014,09,20,04,43,11.20
2014,09,20,04,44,11.20
2014,09,20,04,45,11.20
2014,09,20,04,46,11.20
2014,09,20,04,47,11.20
2014,09,20,04,48,11.10
2014,09,20,04,49,11.10
2014,09,20,04,50,11.10
2014,09,20,04,51,11.10
2014,09,20,04,52,11.10
2014,09,20,04,53,11.10
2014,09,20,04,54,11.10
2014,09,20,04,55,11.10
2014,09,20,04,56,11.10
2014,09,20,04,57,11.10
2014,09,20,04,58,11.10
2014,09,20,04,59,11.10
2014,09,20,05,00,11.00
2014,09,20,05,01,11.00
2014,09,20,05,02,11.00
2014,09,20,05,03,11.00
2014,09,20,05,04,10.90
2014,09,20,05,05,10.90
2014,09,20,05,06,10.90
2014,09,20,05,07,10.90
2014,09,20,05,08,10.90
2014,09,20,05,09,10.80
2014,09,20,05,10,10.80
2014,09,20,05,11,10.80
2014,09,20,05,12,10.80
2014,09,20,05,13,10.80
2014,09,20,05,14,10.80
2014,09,20,05,15,10.80
2014,09,20,05,16,10.80
2014,09,20,05,17,10.80
2014,09,20,05,18,10.80
2014,09,20,05,19,10.80
2014,09,20,05,20,10.80
2014,09,20,05,21,10.80
2014,09,20,05,22,10.80
2014,09,20,05,23,10.80
2014,09,20,05,24,10.80
2014,09,20,05,25,10.80
2014,09,20,05,26,10.80
2014,09,20,05,27,10.80
2014,09,20,05,28,10.80
2014,09,20,05,29,10.80
2014,09,20,05,30,10.80
2014,09,20,05,31,10.80
2014,09,20,05,32,10.90
2014,09,20,05,33,10.90
2014,09,20,05,34,10.90
2014,09,20,05,35,10.90
2014,09,20,05,36,10.90
2014,09,20,05,37,10.90
2014,09,20,05,38,10.90
2014,09,20,05,39,10.90
2014,09,20,05,40,10.90
2014,09,20,05,41,10.90
2014,09,20,05,42,10.90
2014,09,20,05,43,10.80
2014,09,20,05,44,10.80
2014,09,20,05,45,10.80
2014,09,20,05,46,10.80
2014,09,20,05,47,10.80
2014,09,20,05,48,10.80
2014,09,20,05,49,10.80
2014,09,20,05,50,10.80
2014,09,20,05,51,10.80
2014,09,20,05,52,10.80
2014,09,20,05,53,10.70
2014,09,20,05,54,10.70
2014,09,20,05,55,10.70
2014,09,20,05,56,10.70
2014,09,20,05,57,10.70
2014,09,20,05,58,10.70
2014,09,20,05,59,10.70
2014,09,20,06,00,10.70
2014,09,20,06,01,10.70
2014,09,20,06,02,10.80
2014,09,20,06,03,10.80
2014,09,20,06,04,10.80
2014,09,20,06,05,10.80
2014,09,20,06,06,10.80
2014,09,20,06,07,10.80
2014,09,20,06,08,10.70
2014,09,20,06,09,10.70
2014,09,20,06,10,10.70
2014,09,20,06,11,10.70
2014,09,20,06,12,10.70
2014,09,20,06,13,10.70
2014,09,20,06,14,10.70
2014,09,20,06,15,10.70
2014,09,20,06,16,10.70
2014,09,20,06,17,10.70
2014,09,20,06,18,10.60
2014,09,20,06,19,10.60
2014,09,20,06,20,10.60
2014,09,20,06,21,10.60
2014,09,20,06,22,10.60
2014,09,20,06,23,10.60
2014,09,20,06,24,10.60
2014,09,20,06,25,10.60
2014,09,20,06,26,10.60
2014,09,20,06,27,10.60
2014,09,20,06,28,10.60
2014,09,20,06,29,10.60
2014,09,20,06,30,10.50
2014,09,20,06,31,10.50
2014,09,20,06,32,10.50
2014,09,20,06,33,10.50
2014,09,20,06,34,10.50
2014,09,20,06,35,10.50
2014,09,20,06,36,10.50
2014,09,20,06,37,10.40
2014,09,20,06,38,10.50
2014,09,20,06,39,10.40
2014,09,20,06,40,10.40
2014,09,20,06,41,10.40
2014,09,20,06,42,10.50
2014,09,20,06,43,10.40
2014,09,20,06,44,10.50
2014,09,20,06,45,10.50
2014,09,20,06,46,10.50
2014,09,20,06,47,10.50
2014,09,20,06,48,10.50
2014,09,20,06,49,10.50
2014,09,20,06,50,10.50
2014,09,20,06,51,10.60
2014,09,20,06,52,10.60
2014,09,20,06,53,10.60
2014,09,20,06,54,10.50
2014,09,20,06,55,10.60
2014,09,20,06,56,10.60
2014,09,20,06,57,10.60
2014,09,20,06,58,10.50
2014,09,20,06,59,10.50
2014,09,20,07,00,10.50
2014,09,20,07,01,10.50
2014,09,20,07,02,10.50
2014,09,20,07,03,10.50
2014,09,20,07,04,10.50
2014,09,20,07,05,10.50
2014,09,20,07,06,10.50
2014,09,20,07,07,10.50
2014,09,20,07,08,10.50
2014,09,20,07,09,10.50
2014,09,20,07,10,10.40
2014,09,20,07,11,10.40
2014,09,20,07,12,10.50
2014,09,20,07,13,10.40
2014,09,20,07,14,10.40
2014,09,20,07,15,10.40
2014,09,20,07,16,10.40
2014,09,20,07,17,10.40
2014,09,20,07,18,10.40
2014,09,20,07,19,10.40
2014,09,20,07,20,10.40
2014,09,20,07,21,10.40
2014,09,20,07,22,10.40
2014,09,20,07,23,10.40
2014,09,20,07,24,10.40
2014,09,20,07,25,10.40
2014,09,20,07,26,10.50
2014,09,20,07,27,10.50
2014,09,20,07,28,10.50
2014,09,20,07,29,10.50
2014,09,20,07,30,10.50
2014,09,20,07,31,10.50
2014,09,20,07,32,10.50
2014,09,20,07,33,10.50
2014,09,20,07,34,10.50
2014,09,20,07,35,10.50
2014,09,20,07,36,10.50
2014,09,20,07,37,10.50
2014,09,20,07,38,10.40
2014,09,20,07,39,10.40
2014,09,20,07,40,10.40
2014,09,20,07,41,10.40
2014,09,20,07,42,10.40
2014,09,20,07,43,10.40
2014,09,20,07,44,10.40
2014,09,20,07,45,10.40
2014,09,20,07,46,10.40
2014,09,20,07,47,10.40
2014,09,20,07,48,10.40
2014,09,20,07,49,10.40
2014,09,20,07,50,10.40
2014,09,20,07,51,10.30
2014,09,20,07,52,10.30
2014,09,20,07,53,10.30
2014,09,20,07,54,10.30
2014,09,20,07,55,10.30
2014,09,20,07,56,10.30
2014,09,20,07,57,10.30
2014,09,20,07,58,10.30
2014,09,20,07,59,10.30
2014,09,20,08,00,10.30
2014,09,20,08,01,10.30
2014,09,20,08,02,10.30
2014,09,20,08,03,10.30
2014,09,20,08,04,10.30
2014,09,20,08,05,10.30
2014,09,20,08,06,10.30
2014,09,20,08,07,10.30
2014,09,20,08,08,10.30
2014,09,20,08,09,10.20
2014,09,20,08,10,10.20
2014,09,20,08,11,10.20
2014,09,20,08,12,10.20
2014,09,20,08,13,10.20
2014,09,20,08,14,10.20
2014,09,20,08,15,10.10
2014,09,20,08,16,10.10
2014,09,20,08,17,10.10
2014,09,20,08,18,10.10
2014,09,20,08,19,10.10
2014,09,20,08,20,10.10
2014,09,20,08,21,10.10
2014,09,20,08,22,10.20
2014,09,20,08,23,10.20
2014,09,20,08,24,10.20
2014,09,20,08,25,10.20
2014,09,20,08,26,10.20
2014,09,20,08,27,10.20
2014,09,20,08,28,10.20
2014,09,20,08,29,10.30
2014,09,20,08,30,10.30
2014,09,20,08,31,10.30
2014,09,20,08,32,10.30
2014,09,20,08,33,10.40
2014,09,20,08,34,10.40
2014,09,20,08,35,10.40
2014,09,20,08,36,10.50
2014,09,20,08,37,10.50
2014,09,20,08,38,10.60
2014,09,20,08,39,10.60
2014,09,20,08,40,10.60
2014,09,20,08,41,10.60
2014,09,20,08,42,10.60
2014,09,20,08,43,10.60
2014,09,20,08,44,10.60
2014,09,20,08,45,10.60
2014,09,20,08,46,10.60
2014,09,20,08,47,10.60
2014,09,20,08,48,10.70
2014,09,20,08,49,10.70
2014,09,20,08,50,10.70
2014,09,20,08,51,10.70
2014,09,20,08,52,10.80
2014,09,20,08,53,10.80
2014,09,20,08,54,10.90
2014,09,20,08,55,11.00
2014,09,20,08,56,11.00
2014,09,20,08,57,11.10
2014,09,20,08,58,11.10
2014,09,20,08,59,11.10
2014,09,20,09,00,11.10
2014,09,20,09,01,11.20
2014,09,20,09,02,11.20
2014,09,20,09,03,11.30
2014,09,20,09,04,11.30
2014,09,20,09,05,11.40
2014,09,20,09,06,11.40
2014,09,20,09,07,11.50
2014,09,20,09,08,11.50
2014,09,20,09,09,11.60
2014,09,20,09,10,11.60
2014,09,20,09,11,11.70
2014,09,20,09,12,11.80
2014,09,20,09,13,11.80
2014,09,20,09,14,11.90
2014,09,20,09,15,11.90
2014,09,20,09,16,12.00
2014,09,20,09,17,12.10
2014,09,20,09,18,12.20
2014,09,20,09,19,12.20
2014,09,20,09,20,12.30
2014,09,20,09,21,12.30
2014,09,20,09,22,12.40
2014,09,20,09,23,12.50
2014,09,20,09,24,12.50
2014,09,20,09,25,12.60
2014,09,20,09,26,12.60
2014,09,20,09,27,12.70
2014,09,20,09,28,12.70
2014,09,20,09,29,12.70
2014,09,20,09,30,12.80
2014,09,20,09,31,12.80
2014,09,20,09,32,12.80
2014,09,20,09,33,12.80
2014,09,20,09,34,12.90
2014,09,20,09,35,12.90
2014,09,20,09,36,13.00
2014,09,20,09,37,13.10
2014,09,20,09,38,13.10
2014,09,20,09,39,13.20
2014,09,20,09,40,13.30
2014,09,20,09,41,13.30
2014,09,20,09,42,13.40
2014,09,20,09,43,13.50
2014,09,20,09,44,13.60
2014,09,20,09,45,13.70
2014,09,20,09,46,13.70
2014,09,20,09,47,13.80
2014,09,20,09,48,13.90
2014,09,20,09,49,14.00
2014,09,20,09,50,14.10
2014,09,20,09,51,14.20
2014,09,20,09,52,14.30
2014,09,20,09,53,14.30
2014,09,20,09,54,14.40
2014,09,20,09,55,14.50
2014,09,20,09,56,14.50
2014,09,20,09,57,14.60
2014,09,20,09,58,14.60
2014,09,20,09,59,14.70
2014,09,20,10,00,14.80
2014,09,20,10,01,14.80
2014,09,20,10,02,14.90
2014,09,20,10,03,14.90
2014,09,20,10,04,15.00
2014,09,20,10,05,15.10
2014,09,20,10,06,15.10
2014,09,20,10,07,15.20
2014,09,20,10,08,15.30
2014,09,20,10,09,15.30
2014,09,20,10,10,15.40
2014,09,20,10,11,15.40
2014,09,20,10,12,15.50
2014,09,20,10,13,15.60
2014,09,20,10,14,15.70
2014,09,20,10,15,15.70
2014,09,20,10,16,15.70
2014,09,20,10,17,15.80
2014,09,20,10,18,15.80
2014,09,20,10,19,15.80
2014,09,20,10,20,15.80
2014,09,20,10,21,15.80
2014,09,20,10,22,15.80
2014,09,20,10,23,15.90
2014,09,20,10,24,15.90
2014,09,20,10,25,15.90
2014,09,20,10,26,15.90
2014,09,20,10,27,15.90
2014,09,20,10,28,15.90
2014,09,20,10,29,15.90
2014,09,20,10,30,15.90
2014,09,20,10,31,16.00
2014,09,20,10,32,16.00
2014,09,20,10,33,16.00
2014,09,20,10,34,16.00
2014,09,20,10,35,16.10
2014,09,20,10,36,16.20
2014,09,20,10,37,16.20
2014,09,20,10,38,16.30
2014,09,20,10,39,16.40
2014,09,20,10,40,16.50
2014,09,20,10,41,16.60
2014,09,20,10,42,16.70
2014,09,20,10,43,16.70
2014,09,20,10,44,16.80
2014,09,20,10,45,16.80
2014,09,20,10,46,16.90
2014,09,20,10,47,17.00
2014,09,20,10,48,17.20
2014,09,20,10,49,17.30
2014,09,20,10,50,17.40
2014,09,20,10,51,17.50
2014,09,20,10,52,17.60
2014,09,20,10,53,17.60
2014,09,20,10,54,17.60
2014,09,20,10,55,17.50
2014,09,20,10,56,17.40
2014,09,20,10,57,17.30
2014,09,20,10,58,17.30
2014,09,20,10,59,17.20
2014,09,20,11,00,17.10
2014,09,20,11,01,17.00
2014,09,20,11,02,16.90
2014,09,20,11,03,16.70
2014,09,20,11,04,16.70
2014,09,20,11,05,16.50
2014,09,20,11,06,16.50
2014,09,20,11,07,16.40
2014,09,20,11,08,16.30
2014,09,20,11,09,16.20
2014,09,20,11,10,16.10
2014,09,20,11,11,16.00
2014,09,20,11,12,15.90
2014,09,20,11,13,15.80
2014,09,20,11,14,15.70
2014,09,20,11,15,15.70
2014,09,20,11,16,15.60
2014,09,20,11,17,15.50
2014,09,20,11,18,15.50
2014,09,20,11,19,15.50
2014,09,20,11,20,15.40
2014,09,20,11,21,15.50
2014,09,20,11,22,15.50
2014,09,20,11,23,15.50
2014,09,20,11,24,15.60
2014,09,20,11,25,15.60
2014,09,20,11,26,15.60
2014,09,20,11,27,15.60
2014,09,20,11,28,15.60
2014,09,20,11,29,15.70
2014,09,20,11,30,15.70
2014,09,20,11,31,15.80
2014,09,20,11,32,15.80
2014,09,20,11,33,15.90
2014,09,20,11,34,16.00
2014,09,20,11,35,16.10
2014,09,20,11,36,16.10
2014,09,20,11,37,16.20
2014,09,20,11,38,16.20
2014,09,20,11,39,16.30
2014,09,20,11,40,16.30
2014,09,20,11,41,16.30
2014,09,20,11,42,16.40
2014,09,20,11,43,16.50
2014,09,20,11,44,16.60
2014,09,20,11,45,16.70
2014,09,20,11,46,16.80
2014,09,20,11,47,16.90
2014,09,20,11,48,17.00
2014,09,20,11,49,17.10
2014,09,20,11,50,17.10
2014,09,20,11,51,17.10
2014,09,20,11,52,17.10
2014,09,20,11,53,17.10
2014,09,20,11,54,17.10
2014,09,20,11,55,17.10
2014,09,20,11,56,17.10
2014,09,20,11,57,17.20
2014,09,20,11,58,17.20
2014,09,20,11,59,17.20
2014,09,20,12,00,17.30
2014,09,20,12,01,17.30
2014,09,20,12,02,17.30
2014,09,20,12,03,17.30
2014,09,20,12,04,17.30
2014,09,20,12,05,17.30
2014,09,20,12,06,17.20
2014,09,20,12,07,17.30
2014,09,20,12,08,17.30
2014,09,20,12,09,17.30
2014,09,20,12,10,17.30
2014,09,20,12,11,17.40
2014,09,20,12,12,17.40
2014,09,20,12,13,17.50
2014,09,20,12,14,17.50
2014,09,20,12,15,17.50
2014,09,20,12,16,17.60
2014,09,20,12,17,17.60
2014,09,20,12,18,17.60
2014,09,20,12,19,17.70
2014,09,20,12,20,17.70
2014,09,20,12,21,17.70
2014,09,20,12,22,17.80
2014,09,20,12,23,17.80
2014,09,20,12,24,17.80
2014,09,20,12,25,17.90
2014,09,20,12,26,17.90
2014,09,20,12,27,17.90
2014,09,20,12,28,17.90
2014,09,20,12,29,17.90
2014,09,20,12,30,17.90
2014,09,20,12,31,18.00
2014,09,20,12,32,18.10
2014,09,20,12,33,18.10
2014,09,20,12,34,18.20
2014,09,20,12,35,18.20
2014,09,20,12,36,18.10
2014,09,20,12,37,18.10
2014,09,20,12,38,18.10
2014,09,20,12,39,18.10
2014,09,20,12,40,18.20
2014,09,20,12,41,18.30
2014,09,20,12,42,18.30
2014,09,20,12,43,18.40
2014,09,20,12,44,18.40
2014,09,20,12,45,18.40
2014,09,20,12,46,18.40
2014,09,20,12,47,18.40
2014,09,20,12,48,18.40
2014,09,20,12,49,18.40
2014,09,20,12,50,18.40
2014,09,20,12,51,18.40
2014,09,20,12,52,18.40
2014,09,20,12,53,18.40
2014,09,20,12,54,18.40
2014,09,20,12,55,18.40
2014,09,20,12,56,18.50
2014,09,20,12,57,18.60
2014,09,20,12,58,18.60
2014,09,20,12,59,18.70
2014,09,20,13,00,18.80
2014,09,20,13,01,18.80
2014,09,20,13,02,18.80
2014,09,20,13,03,18.90
2014,09,20,13,04,18.90
2014,09,20,13,05,19.00
2014,09,20,13,06,19.10
2014,09,20,13,07,19.20
2014,09,20,13,08,19.30
2014,09,20,13,09,19.40
2014,09,20,13,10,19.50
2014,09,20,13,11,19.60
2014,09,20,13,12,19.60
2014,09,20,13,13,19.70
2014,09,20,13,14,19.70
2014,09,20,13,15,19.70
2014,09,20,13,16,19.70
2014,09,20,13,17,19.70
2014,09,20,13,18,19.60
2014,09,20,13,19,19.60
2014,09,20,13,20,19.50
2014,09,20,13,21,19.40
2014,09,20,13,22,19.40
2014,09,20,13,23,19.40
2014,09,20,13,24,19.40
2014,09,20,13,25,19.40
2014,09,20,13,26,19.40
2014,09,20,13,27,19.40
2014,09,20,13,28,19.30
2014,09,20,13,29,19.20
2014,09,20,13,30,19.10
2014,09,20,13,31,19.10
2014,09,20,13,32,19.10
2014,09,20,13,33,19.10
2014,09,20,13,34,19.10
2014,09,20,13,35,19.00
2014,09,20,13,36,19.00
2014,09,20,13,37,19.00
2014,09,20,13,38,19.00
2014,09,20,13,39,19.10
2014,09,20,13,40,19.10
2014,09,20,13,41,19.10
2014,09,20,13,42,19.20
2014,09,20,13,43,19.30
2014,09,20,13,44,19.30
2014,09,20,13,45,19.40
2014,09,20,13,46,19.40
2014,09,20,13,47,19.40
2014,09,20,13,48,19.40
2014,09,20,13,49,19.40
2014,09,20,13,50,19.40
2014,09,20,13,51,19.40
2014,09,20,13,52,19.40
2014,09,20,13,53,19.40
2014,09,20,13,54,19.30
2014,09,20,13,55,19.30
2014,09,20,13,56,19.40
2014,09,20,13,57,19.50
2014,09,20,13,58,19.50
2014,09,20,13,59,19.60
2014,09,20,14,00,19.60
2014,09,20,14,01,19.70
2014,09,20,14,02,19.70
2014,09,20,14,03,19.80
2014,09,20,14,04,19.80
2014,09,20,14,05,19.90
2014,09,20,14,06,20.00
2014,09,20,14,07,20.10
2014,09,20,14,08,20.10
2014,09,20,14,09,20.10
2014,09,20,14,10,20.20
2014,09,20,14,11,20.20
2014,09,20,14,12,20.30
2014,09,20,14,13,20.30
2014,09,20,14,14,20.40
2014,09,20,14,15,20.60
2014,09,20,14,16,20.70
2014,09,20,14,17,20.80
2014,09,20,14,18,20.90
2014,09,20,14,19,21.00
2014,09,20,14,20,21.10
2014,09,20,14,21,21.10
2014,09,20,14,22,21.20
2014,09,20,14,23,21.20
2014,09,20,14,24,21.30
2014,09,20,14,25,21.30
2014,09,20,14,26,21.30
2014,09,20,14,27,21.40
2014,09,20,14,28,21.40
2014,09,20,14,29,21.40
2014,09,20,14,30,21.50
2014,09,20,14,31,21.60
2014,09,20,14,32,21.70
2014,09,20,14,33,21.70
2014,09,20,14,34,21.70
2014,09,20,14,35,21.70
2014,09,20,14,36,21.70
2014,09,20,14,37,21.70
2014,09,20,14,38,21.70
2014,09,20,14,39,21.70
2014,09,20,14,40,21.70
2014,09,20,14,41,21.80
2014,09,20,14,42,21.80
2014,09,20,14,43,21.80
2014,09,20,14,44,21.80
2014,09,20,14,45,21.80
2014,09,20,14,46,21.90
2014,09,20,14,47,21.90
2014,09,20,14,48,21.90
2014,09,20,14,49,21.90
2014,09,20,14,50,22.00
2014,09,20,14,51,22.00
2014,09,20,14,52,22.10
2014,09,20,14,53,22.10
2014,09,20,14,54,22.20
2014,09,20,14,55,22.20
2014,09,20,14,56,22.30
2014,09,20,14,57,22.30
2014,09,20,14,58,22.40
2014,09,20,14,59,22.50
2014,09,20,15,00,22.60
2014,09,20,15,01,22.70
2014,09,20,15,02,22.80
2014,09,20,15,03,22.80
2014,09,20,15,04,22.90
2014,09,20,15,05,22.90
2014,09,20,15,06,22.90
2014,09,20,15,07,22.90
2014,09,20,15,08,23.00
2014,09,20,15,09,23.10
2014,09,20,15,10,23.10
2014,09,20,15,11,23.20
2014,09,20,15,12,23.20
2014,09,20,15,13,23.20
2014,09,20,15,14,23.20
2014,09,20,15,15,23.30
2014,09,20,15,16,23.30
2014,09,20,15,17,23.30
2014,09,20,15,18,23.30
2014,09,20,15,19,23.30
2014,09,20,15,20,23.30
2014,09,20,15,21,23.40
2014,09,20,15,22,23.50
2014,09,20,15,23,23.50
2014,09,20,15,24,23.60
2014,09,20,15,25,23.60
2014,09,20,15,26,23.70
2014,09,20,15,27,23.70
2014,09,20,15,28,23.70
2014,09,20,15,29,23.60
2014,09,20,15,30,23.60
2014,09,20,15,31,23.50
2014,09,20,15,32,23.50
2014,09,20,15,33,23.50
2014,09,20,15,34,23.50
2014,09,20,15,35,23.50
2014,09,20,15,36,23.60
2014,09,20,15,37,23.60
2014,09,20,15,38,23.60
2014,09,20,15,39,23.60
2014,09,20,15,40,23.60
2014,09,20,15,41,23.60
2014,09,20,15,42,23.50
2014,09,20,15,43,23.40
2014,09,20,15,44,23.30
2014,09,20,15,45,23.30
2014,09,20,15,46,23.30
2014,09,20,15,47,23.20
2014,09,20,15,48,23.20
2014,09,20,15,49,23.10
2014,09,20,15,50,23.10
2014,09,20,15,51,23.10
2014,09,20,15,52,23.10
2014,09,20,15,53,23.10
2014,09,20,15,54,23.20
2014,09,20,15,55,23.20
2014,09,20,15,56,23.20
2014,09,20,15,57,23.10
2014,09,20,15,58,23.00
2014,09,20,15,59,22.90
2014,09,20,16,00,22.80
2014,09,20,16,01,22.80
2014,09,20,16,02,22.70
2014,09,20,16,03,22.60
2014,09,20,16,04,22.50
2014,09,20,16,05,22.40
2014,09,20,16,06,22.30
2014,09,20,16,07,22.30
2014,09,20,16,08,22.20
2014,09,20,16,09,22.10
2014,09,20,16,10,22.00
2014,09,20,16,11,22.00
2014,09,20,16,12,22.00
2014,09,20,16,13,21.90
2014,09,20,16,14,21.90
2014,09,20,16,15,21.90
2014,09,20,16,16,21.90
2014,09,20,16,17,21.90
2014,09,20,16,18,21.90
2014,09,20,16,19,21.90
2014,09,20,16,20,21.90
2014,09,20,16,21,21.90
2014,09,20,16,22,21.90
2014,09,20,16,23,21.90
2014,09,20,16,24,21.90
2014,09,20,16,25,21.90
2014,09,20,16,26,22.00
2014,09,20,16,27,22.00
2014,09,20,16,28,22.00
2014,09,20,16,29,22.10
2014,09,20,16,30,22.10
2014,09,20,16,31,22.10
2014,09,20,16,32,22.10
2014,09,20,16,33,22.10
2014,09,20,16,34,22.00
2014,09,20,16,35,21.90
2014,09,20,16,36,21.90
2014,09,20,16,37,21.80
2014,09,20,16,38,21.80
2014,09,20,16,39,21.80
2014,09,20,16,40,21.80
2014,09,20,16,41,21.80
2014,09,20,16,42,21.70
2014,09,20,16,43,21.70
2014,09,20,16,44,21.60
2014,09,20,16,45,21.50
2014,09,20,16,46,21.50
2014,09,20,16,47,21.50
2014,09,20,16,48,21.50
2014,09,20,16,49,21.60
2014,09,20,16,50,21.60
2014,09,20,16,51,21.60
2014,09,20,16,52,21.60
2014,09,20,16,53,21.60
2014,09,20,16,54,21.60
2014,09,20,16,55,21.60
2014,09,20,16,56,21.60
2014,09,20,16,57,21.70
2014,09,20,16,58,21.80
2014,09,20,16,59,21.80
2014,09,20,17,00,21.90
2014,09,20,17,01,21.90
2014,09,20,17,02,21.90
2014,09,20,17,03,21.90
2014,09,20,17,04,21.90
2014,09,20,17,05,21.90
2014,09,20,17,06,21.90
2014,09,20,17,07,21.90
2014,09,20,17,08,21.80
2014,09,20,17,09,21.80
2014,09,20,17,10,21.80
2014,09,20,17,11,21.80
2014,09,20,17,12,21.80
2014,09,20,17,13,21.80
2014,09,20,17,14,21.80
2014,09,20,17,15,21.80
2014,09,20,17,16,21.90
2014,09,20,17,17,21.90
2014,09,20,17,18,21.90
2014,09,20,17,19,21.90